When you browse on this site, cookies collect data to enhance your experience and personalize the content and advertising you see.
Visit our Privacy Policy to learn more. By continuing to use the site, you agree to this use of cookies and data.
  • In Portugal
  • List of Countries
  • For 7 days
  • Water Temperature
  • Weather Map
  • Weather Widgets
  • user-avatar
    Login

    Hourly Weather Kandahar

    Today, 18 October, Friday

    Time Temperature Precipitation Wind Pressure Humidity
    00:00 +14°C° 0 mm 1 mps 675 mmHg 23%
    01:00 +13°C° 0 mm 1 mps 675 mmHg 24%
    02:00 +11°C° 0 mm 0 mps 674 mmHg 25%
    03:00 +11°C° 0 mm 0 mps 674 mmHg 26%
    04:00 +10°C° 0 mm 0 mps 674 mmHg 27%
    05:00 +12°C° 0 mm 0 mps 675 mmHg 24%
    06:00 +14°C° 0 mm 0 mps 676 mmHg 22%
    07:00 +16°C° 0 mm 0 mps 677 mmHg 19%
    08:00 +20°C° 0 mm 1 mps 678 mmHg 17%
    09:00 +22°C° 0 mm 1 mps 678 mmHg 15%
    10:00 +24°C° 0 mm 1 mps 679 mmHg 12%
    11:00 +25°C° 0 mm 1 mps 678 mmHg 11%
    12:00 +26°C° 0 mm 1 mps 678 mmHg 11%
    13:00 +28°C° 0 mm 2 mps 677 mmHg 10%
    14:00 +27°C° 0 mm 2 mps 677 mmHg 10%
    15:00 +27°C° 0 mm 2 mps 677 mmHg 10%
    16:00 +27°C° 0 mm 1 mps 676 mmHg 10%
    17:00 +24°C° 0 mm 1 mps 676 mmHg 13%
    18:00 +21°C° 0 mm 1 mps 676 mmHg 16%
    19:00 +16°C° 0 mm 1 mps 676 mmHg 19%
    20:00 +16°C° 0 mm 1 mps 676 mmHg 20%
    21:00 +14°C° 0 mm 0 mps 676 mmHg 22%
    22:00 +14°C° 0 mm 0 mps 676 mmHg 23%
    23:00 +15°C° 0 mm 1 mps 676 mmHg 23%

    Tomorrow, 19 October, Saturday

    Time Temperature Precipitation Wind Pressure Humidity
    00:00 +14°C° 0 mm 1 mps 676 mmHg 24%
    01:00 +14°C° 0 mm 1 mps 676 mmHg 24%
    02:00 +14°C° 0 mm 1 mps 676 mmHg 24%
    03:00 +14°C° 0 mm 2 mps 676 mmHg 24%
    04:00 +14°C° 0 mm 2 mps 676 mmHg 24%
    05:00 +15°C° 0 mm 2 mps 677 mmHg 23%
    06:00 +16°C° 0 mm 2 mps 678 mmHg 22%
    07:00 +17°C° 0 mm 3 mps 678 mmHg 22%
    08:00 +20°C° 0 mm 2 mps 679 mmHg 19%
    09:00 +23°C° 0 mm 2 mps 679 mmHg 16%
    10:00 +26°C° 0 mm 1 mps 680 mmHg 13%
    11:00 +27°C° 0 mm 1 mps 679 mmHg 12%
    12:00 +28°C° 0 mm 1 mps 679 mmHg 11%
    13:00 +29°C° 0 mm 1 mps 678 mmHg 10%
    14:00 +28°C° 0 mm 2 mps 678 mmHg 10%
    15:00 +28°C° 0 mm 2 mps 678 mmHg 10%
    16:00 +28°C° 0 mm 2 mps 677 mmHg 10%
    17:00 +25°C° 0 mm 2 mps 677 mmHg 13%
    18:00 +22°C° 0 mm 1 mps 677 mmHg 16%
    19:00 +19°C° 0 mm 1 mps 677 mmHg 18%
    20:00 +19°C° 0 mm 1 mps 677 mmHg 19%
    21:00 +19°C° 0 mm 1 mps 677 mmHg 19%
    22:00 +18°C° 0 mm 1 mps 677 mmHg 20%
    23:00 +18°C° 0 mm 1 mps 676 mmHg 20%

    Day after tomorrow, 20 October, Sunday

    Time Temperature Precipitation Wind Pressure Humidity
    00:00 +18°C° 0 mm 1 mps 676 mmHg 21%
    01:00 +18°C° 0 mm 1 mps 676 mmHg 21%
    02:00 +16°C° 0 mm 1 mps 676 mmHg 22%
    03:00 +14°C° 0 mm 0 mps 676 mmHg 23%
    04:00 +13°C° 0 mm 0 mps 676 mmHg 24%
    05:00 +15°C° 0 mm 0 mps 676 mmHg 22%
    06:00 +17°C° 0 mm 0 mps 677 mmHg 20%
    07:00 +18°C° 0 mm 0 mps 678 mmHg 17%
    08:00 +22°C° 0 mm 1 mps 678 mmHg 16%
    09:00 +25°C° 0 mm 1 mps 679 mmHg 14%
    10:00 +27°C° 0 mm 1 mps 679 mmHg 12%
    11:00 +27°C° 0 mm 1 mps 679 mmHg 11%
    12:00 +28°C° 0 mm 2 mps 678 mmHg 10%
    13:00 +29°C° 0 mm 2 mps 678 mmHg 10%
    14:00 +29°C° 0 mm 2 mps 678 mmHg 10%
    15:00 +29°C° 0 mm 3 mps 677 mmHg 10%
    16:00 +28°C° 0 mm 3 mps 677 mmHg 10%
    17:00 +25°C° 0 mm 2 mps 677 mmHg 12%
    18:00 +21°C° 0 mm 2 mps 676 mmHg 14%
    19:00 +18°C° 0 mm 2 mps 676 mmHg 16%
    20:00 +18°C° 0 mm 1 mps 676 mmHg 17%
    21:00 +16°C° 0 mm 1 mps 676 mmHg 18%
    22:00 +15°C° 0 mm 1 mps 675 mmHg 20%
    23:00 +14°C° 0 mm 0 mps 675 mmHg 21%

    21 October, Monday

    Time Temperature Precipitation Wind Pressure Humidity
    00:00 +13°C° 0 mm 0 mps 675 mmHg 21%
    01:00 +13°C° 0 mm 0 mps 675 mmHg 22%
    02:00 +12°C° 0 mm 0 mps 675 mmHg 24%
    03:00 +12°C° 0 mm 0 mps 675 mmHg 25%
    04:00 +12°C° 0 mm 0 mps 674 mmHg 27%
    05:00 +13°C° 0 mm 0 mps 675 mmHg 24%
    06:00 +15°C° 0 mm 0 mps 676 mmHg 21%
    07:00 +17°C° 0 mm 0 mps 677 mmHg 18%
    08:00 +19°C° 0 mm 0 mps 677 mmHg 16%
    09:00 +22°C° 0 mm 0 mps 678 mmHg 14%
    10:00 +26°C° 0 mm 1 mps 678 mmHg 11%
    11:00 +27°C° 0 mm 1 mps 677 mmHg 10%
    12:00 +28°C° 0 mm 2 mps 677 mmHg 9%
    13:00 +29°C° 0 mm 3 mps 677 mmHg 8%
    14:00 +29°C° 0 mm 4 mps 676 mmHg 8%
    15:00 +29°C° 0 mm 4 mps 676 mmHg 8%
    16:00 +28°C° 0 mm 4 mps 675 mmHg 8%
    17:00 +25°C° 0 mm 3 mps 675 mmHg 10%
    18:00 +21°C° 0 mm 2 mps 675 mmHg 13%
    19:00 +19°C° 0 mm 1 mps 674 mmHg 15%
    20:00 +18°C° 0 mm 1 mps 674 mmHg 16%
    21:00 +16°C° 0 mm 1 mps 674 mmHg 16%
    22:00 +16°C° 0 mm 1 mps 674 mmHg 17%
    23:00 +15°C° 0 mm 1 mps 674 mmHg 18%

    22 October, Tuesday

    Time Temperature Precipitation Wind Pressure Humidity
    00:00 +14°C° 0 mm 1 mps 673 mmHg 19%
    01:00 +12°C° 0 mm 0 mps 673 mmHg 20%
    02:00 +12°C° 0 mm 0 mps 673 mmHg 20%
    03:00 +12°C° 0 mm 0 mps 673 mmHg 21%
    04:00 +12°C° 0 mm 0 mps 673 mmHg 21%
    05:00 +13°C° 0 mm 0 mps 673 mmHg 19%
    06:00 +16°C° 0 mm 1 mps 674 mmHg 17%
    07:00 +19°C° 0 mm 1 mps 675 mmHg 16%
    08:00 +21°C° 0 mm 1 mps 676 mmHg 14%
    09:00 +24°C° 0 mm 2 mps 676 mmHg 12%
    10:00 +26°C° 0 mm 3 mps 676 mmHg 11%
    11:00 +27°C° 0 mm 4 mps 676 mmHg 11%
    12:00 +29°C° 0 mm 6 mps 676 mmHg 12%
    13:00 +30°C° 0 mm 7 mps 675 mmHg 12%
    14:00 +29°C° 0 mm 7 mps 675 mmHg 13%
    15:00 +29°C° 0 mm 7 mps 675 mmHg 13%
    16:00 +28°C° 0 mm 6 mps 674 mmHg 13%
    17:00 +26°C° 0 mm 6 mps 674 mmHg 16%
    18:00 +23°C° 0 mm 5 mps 674 mmHg 20%
    19:00 +21°C° 0 mm 5 mps 674 mmHg 23%
    20:00 +19°C° 0 mm 4 mps 674 mmHg 24%
    21:00 +18°C° 0 mm 3 mps 674 mmHg 26%
    22:00 +17°C° 0 mm 3 mps 674 mmHg 28%
    23:00 +15°C° 0 mm 2 mps 673 mmHg 30%

    23 October, Wednesday

    Time Temperature Precipitation Wind Pressure Humidity
    00:00 +14°C° 0 mm 2 mps 673 mmHg 31%
    01:00 +13°C° 0 mm 2 mps 672 mmHg 32%
    02:00 +12°C° 0 mm 1 mps 672 mmHg 33%
    03:00 +12°C° 0 mm 1 mps 672 mmHg 34%
    04:00 +11°C° 0 mm 1 mps 672 mmHg 35%
    05:00 +12°C° 0 mm 1 mps 673 mmHg 32%
    06:00 +13°C° 0 mm 1 mps 673 mmHg 29%
    07:00 +15°C° 0 mm 1 mps 674 mmHg 26%
    08:00 +16°C° 0 mm 1 mps 675 mmHg 23%
    09:00 +18°C° 0 mm 2 mps 675 mmHg 20%
    10:00 +20°C° 0 mm 2 mps 675 mmHg 17%
    11:00 +21°C° 0 mm 2 mps 675 mmHg 16%
    12:00 +22°C° 0 mm 3 mps 674 mmHg 14%
    13:00 +25°C° 0 mm 3 mps 674 mmHg 13%
    14:00 +24°C° 0 mm 3 mps 674 mmHg 13%
    15:00 +23°C° 0 mm 4 mps 673 mmHg 13%
    16:00 +23°C° 0 mm 4 mps 673 mmHg 13%
    17:00 +20°C° 0 mm 3 mps 673 mmHg 17%
    18:00 +17°C° 0 mm 2 mps 673 mmHg 21%
    19:00 +14°C° 0 mm 1 mps 672 mmHg 25%
    20:00 +14°C° 0 mm 1 mps 672 mmHg 27%
    21:00 +13°C° 0 mm 1 mps 673 mmHg 28%
    22:00 +13°C° 0 mm 1 mps 673 mmHg 29%
    23:00 +12°C° 0 mm 1 mps 672 mmHg 29%
    Show more